Location: Asheville, NC
(35.6000°N, 82.5500°W)
Time: 18:47:04
(UTC-05:00)

Vanguard 1 - Pass Details

Date: 10 February 2018
Orbit: 650 x 3833 km, 34.2° (Epoch: 16 February)

Event Time Altitude Azimuth Distance (km) Brightness Sun altitude
Rises 22:17:07 0° 276° (W) 2,966 - -50.6°
Reaches altitude 10° 22:19:21 10° 271° (W) 2,043 - -51.0°
Maximum altitude 22:23:37 49° 195° (SSW) 912 - -51.8°
Drops below altitude 10° 22:29:04 10° 121° (ESE) 2,610 - -52.8°
Sets 22:32:18 0° 117° (ESE) 3,908 - -53.4°
